Weather History for KBML - April, 2013

Change the Weather History Date:

Tuesday, April 9, 2013

  Actual Average Record
Temperature  
Mean Temperature 38 °F -  
Max Temperature 46 °F 45 °F 57 °F (1998)
Min Temperature 32 °F 21 °F 10 °F (1997)
Degree Days  
Heating Degree Days 27    
Moisture  
Dew Point 37 °F    
Average Humidity 86    
Maximum Humidity 93    
Minimum Humidity 76    
Precipitation  
Precipitation 0.30 in - - ()
Sea Level Pressure  
Sea Level Pressure 29.94 in    
Wind  
Wind Speed 4 mph (WNW)    
Max Wind Speed 13 mph    
Max Gust Speed 23 mph    
Visibility 7 miles    
Events Rain    
Averages and records for this station are not official NWS values.
T = Trace of Precipitation, MM = Missing Value Source: NWS Daily Summary

Daily Weather History Graph

Daily Weather History Graph

Search for Another Location

Airport or City:

Trip Planner

Search our weather history database for the weather conditions in past years. The results will help you decide how hot, cold, wet, or windy it might be!

Date:

Astronomy

Apr. 09, 2013 Rise Set
Actual Time 6:10 AM EDT 7:22 PM EDT
Civil Twilight 5:40 AM EDT 7:52 PM EDT
Nautical Twilight 5:04 AM EDT 8:28 PM EDT
Astronomical Twilight 4:27 AM EDT 9:06 PM EDT
Moon 5:32 AM EDT (4/9) 6:55 PM EDT (4/9)
Length of Visible Light 14h 11m
Length of Day
13h 11m
Waning Crescent, 1% of the Moon is Illuminated
Apr 9
Waning Crescent
Apr 10
New
Apr 18
First Quarter
Apr 25
Full
May 2
Last Quarter

Hourly Weather History & Observations

Time (EDT) Temp. Windchill Dew Point Humidity Pressure Visibility Wind Dir Wind Speed Gust Speed Precip Events Conditions
12:52 AM 32.0 °F - 27.0 °F 82% 30.06 in 10.0 mi Calm Calm - N/A   Scattered Clouds
1:52 AM 35.1 °F - 28.0 °F 76% 30.03 in 10.0 mi Calm Calm - N/A   Overcast
2:52 AM 36.0 °F 31.1 °F 30.9 °F 82% 30.01 in 10.0 mi North 5.8 mph - 0.00 in Rain Light Rain
3:52 AM 36.0 °F 32.1 °F 32.0 °F 86% 29.99 in 8.0 mi NNW 4.6 mph - 0.02 in Rain Light Rain
4:52 AM 39.9 °F 35.1 °F 36.0 °F 86% 29.94 in 6.0 mi ESE 6.9 mph - 0.03 in Rain Light Rain
5:52 AM 41.0 °F 38.0 °F 36.0 °F 82% 29.94 in 6.0 mi SE 4.6 mph 16.1 mph 0.06 in Rain Light Rain
6:52 AM 41.0 °F 35.8 °F 37.9 °F 89% 29.91 in 6.0 mi SSE 8.1 mph - 0.05 in Rain Light Rain
7:52 AM 43.0 °F 37.7 °F 37.9 °F 82% 29.90 in 10.0 mi SSE 9.2 mph - 0.05 in   Overcast
8:52 AM 42.1 °F 39.2 °F 37.9 °F 85% 29.88 in 10.0 mi SE 4.6 mph - 0.00 in Rain Light Rain
9:28 AM 42.8 °F - 39.2 °F 87% 29.84 in 3.0 mi Calm Calm - 0.02 in Rain Light Rain
9:52 AM 41.0 °F 37.1 °F 39.0 °F 93% 29.89 in 4.0 mi NNW 5.8 mph - 0.04 in Rain Light Rain
10:18 AM 41.0 °F 36.4 °F 39.2 °F 93% 29.86 in 3.0 mi North 6.9 mph - 0.02 in Rain Light Rain
10:35 AM 41.0 °F 39.0 °F 39.2 °F 93% 29.87 in 3.0 mi NW 3.5 mph - 0.03 in Rain Light Rain
10:52 AM 41.0 °F 36.4 °F 37.9 °F 89% 29.91 in 4.0 mi North 6.9 mph - 0.04 in Rain Light Rain
11:20 AM 41.0 °F 39.0 °F 39.2 °F 93% 29.87 in 5.0 mi NNW 3.5 mph - 0.00 in Rain Light Rain
11:31 AM 41.0 °F - 39.2 °F 93% 29.87 in 2.0 mi Calm Calm - 0.01 in Rain Light Rain
11:52 AM 41.0 °F - 39.0 °F 93% 29.92 in 3.0 mi Calm Calm - 0.01 in   Overcast
11:59 AM 41.0 °F - 39.2 °F 93% 29.88 in 3.0 mi Calm Calm - N/A   Overcast
12:06 PM 41.0 °F - 39.2 °F 93% 29.88 in 2.5 mi Calm Calm - N/A   Overcast
12:17 PM 42.8 °F - 39.2 °F 87% 29.88 in 2.5 mi Calm Calm - N/A   Overcast
12:24 PM 42.8 °F - 39.2 °F 87% 29.87 in 4.0 mi Calm Calm - N/A   Overcast
12:52 PM 43.0 °F - 41.0 °F 93% 29.93 in 6.0 mi Calm Calm - N/A   Overcast
1:17 PM 44.6 °F 39.2 °F 41.0 °F 87% 29.90 in 10.0 mi West 10.4 mph 19.6 mph N/A   Overcast
1:47 PM 44.6 °F 39.7 °F 39.2 °F 81% 29.92 in 10.0 mi West 9.2 mph 18.4 mph N/A   Overcast
1:52 PM 44.1 °F 39.0 °F 39.9 °F 85% 29.96 in 10.0 mi West 9.2 mph 20.7 mph N/A   Overcast
2:13 PM 44.6 °F 38.4 °F 39.2 °F 81% 29.93 in 10.0 mi West 12.7 mph 23.0 mph N/A   Mostly Cloudy
2:39 PM 44.6 °F 42.2 °F 39.2 °F 81% 29.93 in 10.0 mi Variable 4.6 mph - N/A   Mostly Cloudy
2:52 PM 43.0 °F 38.2 °F 37.0 °F 80% 29.97 in 10.0 mi West 8.1 mph - N/A   Overcast
3:52 PM 42.1 °F 37.7 °F 36.0 °F 79% 29.99 in 10.0 mi WNW 6.9 mph 16.1 mph N/A   Overcast
4:52 PM 42.1 °F 36.6 °F 36.0 °F 79% 29.99 in 10.0 mi West 9.2 mph - N/A   Overcast
5:52 PM 42.1 °F 36.1 °F 36.0 °F 79% 30.00 in 10.0 mi West 10.4 mph 17.3 mph N/A   Overcast
6:52 PM 41.0 °F 36.4 °F 35.1 °F 79% 30.03 in 10.0 mi North 6.9 mph - N/A   Overcast
7:52 PM 39.9 °F 37.8 °F 35.1 °F 83% 30.04 in 10.0 mi Variable 3.5 mph - N/A   Overcast
8:52 PM 39.9 °F - 35.1 °F 83% 30.06 in 10.0 mi Calm Calm - N/A   Overcast
9:52 PM 39.9 °F - 34.0 °F 79% 30.04 in 10.0 mi Calm Calm - N/A   Mostly Cloudy
10:13 PM 37.4 °F - 33.8 °F 87% 29.99 in 10.0 mi Calm Calm - N/A   Scattered Clouds
10:52 PM 37.0 °F - 34.0 °F 89% 30.02 in 10.0 mi Calm Calm - N/A   Scattered Clouds
11:52 PM 35.1 °F - 32.0 °F 89% 29.99 in 10.0 mi Calm Calm - N/A   Overcast